[[{"header":{"parameterUnit":"m.s-1","parameterCategory":1,"la1":30.2991,"la2":30.254,"lo1":-89.0895,"lo2":-89.0444,"dy":0.0017,"dx":0.0017,"nx":28,"ny":28,"refTime":"2025-04-07T21:00:00:Z","depth":0,"parameterNumber":2,"parameterNumberName":"U-component_of_WINDS"},"data":[0,0,0,0,0,0,0,0,0,0,0,0,0,0,0,0,0,0,0,0,0,0,0,0,0,0,0,0,0,0,0,0,0,0,0,0,0,0,0,0,0,0,0,0,0,0,0,0,0,0,0,0,0,0,0,0,0,0,2.4501,2.4501,0,2.4566,2.4566,2.4567,2.458,2.458,2.4579,2.4579,2.4646,2.4648,2.465,0,0,0,0,0,0,0,0,0,0,0,0,0,2.439,2.4392,2.4501,2.4502,2.4502,2.4566,2.4566,2.4567,2.4581,2.458,2.4579,2.4579,2.4645,2.4648,2.465,0,0,0,0,0,0,0,0,0,0,0,0,0,2.4445,2.4393,2.4501,2.4517,2.4519,2.4565,2.4567,2.4568,2.4581,2.458,2.4579,2.4578,2.4644,2.4647,2.4651,2.4686,0,0,2.4661,2.4663,0,0,0,0,0,0,0,0,2.4442,2.4449,2.4513,2.4516,2.4518,2.4564,2.4552,2.4607,2.4581,2.4557,2.4579,2.4578,2.4619,2.4625,2.4638,2.469,2.4692,2.4661,2.4663,2.4665,2.4666,0,0,0,0,0,0,0,2.4438,2.4446,2.4526,2.4514,2.4517,2.4521,2.4528,2.4563,2.4592,2.4559,2.456,2.4568,2.462,2.4635,2.464,2.4693,2.4661,2.4664,2.4666,2.4668,2.4779,2.478,0,0,0,0,0,0,2.4431,2.4443,2.4524,2.4528,2.4477,2.4524,2.4532,2.455,2.4591,2.4597,2.4568,2.4568,2.463,2.4636,2.4643,2.4688,2.4665,2.4668,2.467,2.4778,2.478,2.4781,0,0,0,0,0,0,2.4429,2.4438,2.4522,2.4486,2.4497,2.4526,2.4547,2.4552,2.4567,2.4598,2.4604,2.4578,2.463,2.4638,2.4676,2.4691,2.4669,2.4673,2.4777,2.4779,2.478,2.4779,0,0,0,0,0,0,2.4426,2.4437,2.445,2.4486,2.4499,2.4553,2.4548,2.4554,2.4572,2.4573,2.4609,2.4614,2.463,2.4671,2.4679,2.4695,2.4675,2.4776,2.4778,2.478,2.4778,2.478,2.4782,0,0,0,0,0,2.4422,2.4447,2.4451,2.4461,2.4516,2.4554,2.4561,2.4579,2.4573,2.4587,2.4608,2.4613,2.4688,2.4675,2.4684,2.4701,2.4775,2.4777,2.4779,2.4777,2.4779,2.4782,0,0,0,0,0,0,2.4412,2.4452,2.4457,2.4495,2.4521,2.4556,2.4574,2.4581,2.4609,2.4608,2.4629,2.4637,2.4674,2.4692,2.4676,2.4739,2.4731,2.4735,2.4726,2.4729,2.4731,2.4726,2.4678,0,0,0,0,0,2.4414,2.4442,2.4475,2.4506,2.4519,2.4544,2.4561,2.4573,2.4601,2.4612,2.4635,2.4663,2.4693,2.4712,2.4741,2.4781,2.4789,2.4797,2.4799,2.4801,2.4804,2.4828,2.4832,2.4788,2.4788,2.4788,0,0,2.4419,2.4445,2.446,2.4504,2.4526,2.4555,2.4553,2.4583,2.4605,2.4617,2.4654,2.4673,2.4705,2.4744,2.4762,2.476,2.4819,2.4804,2.4805,2.4807,2.4831,2.4835,2.4839,2.4789,2.4789,2.4789,0,0,2.4443,2.4464,2.4493,2.4515,2.4548,2.4565,2.4572,2.4607,2.462,2.4658,2.4668,2.4695,2.4745,2.4768,2.4786,2.4822,2.4827,2.4831,2.4842,2.4865,2.4868,2.4872,2.4885,2.489,2.4834,2.4834,2.4834,0,2.4445,2.4487,2.4506,2.4536,2.4556,2.4569,2.4598,2.4619,2.466,2.4674,2.467,2.4735,2.4758,2.4803,2.4812,2.4826,2.4836,2.4826,2.4866,2.487,2.4873,2.4886,2.4891,2.4834,2.4834,2.4834,2.4834,0,2.4489,2.4519,2.4538,2.4578,2.46,2.4629,2.4653,2.4673,2.4684,2.4702,2.4741,2.4769,2.4805,2.4817,2.4826,2.4865,2.4862,2.4862,2.4855,2.4877,2.489,2.4895,2.4834,2.4834,2.4834,2.4834,0,0,2.4506,2.4558,2.4564,2.4583,2.4622,2.4646,2.4677,2.4712,2.473,2.4758,2.4785,2.4829,2.483,2.4851,2.4864,2.4885,2.4912,2.4883,2.4884,2.4887,2.4957,2.4957,2.4962,2.4917,2.4918,2.4918,2.4955,0,2.4535,2.459,2.4609,2.4655,2.4684,2.4698,2.4725,2.4752,2.477,2.4798,2.4819,2.485,2.4848,2.4861,2.4882,2.4904,2.4926,2.4902,2.4943,2.4944,2.4934,2.4969,2.4968,2.5001,2.496,2.4961,2.4961,0,2.4575,2.4605,2.4654,2.4691,2.4704,2.4728,2.4763,2.4789,2.4821,2.4833,2.4857,2.4869,2.4903,2.4895,2.4943,2.4926,2.4944,2.4958,2.496,2.4964,2.4954,2.4974,2.5011,2.5016,2.4969,2.4968,2.4968,0,2.4584,2.4636,2.4673,2.4689,2.4732,2.4749,2.4768,2.48,2.482,2.4851,2.4865,2.49,2.4919,2.4946,2.4967,2.4959,2.5014,2.5007,2.5026,2.5025,2.5036,2.5035,2.5077,2.5048,2.5047,2.5047,2.5047,0,2.4614,2.4643,2.4678,2.47,2.4734,2.4756,2.479,2.481,2.4838,2.4866,2.488,2.4905,2.4932,2.4962,2.4979,2.5017,2.5025,2.5037,2.5041,2.5035,2.5034,2.5047,2.5045,2.5049,2.5048,2.5048,2.5048,0,2.4629,2.4653,2.4694,2.4732,2.4743,2.4766,2.48,2.4823,2.4843,2.4877,2.4887,2.4918,2.4954,2.4978,2.5024,2.5035,2.5077,2.508,2.5066,2.5068,2.5085,2.5084,2.5137,2.5146,2.5111,2.5111,2.5111,0,2.4646,2.4669,2.4711,2.473,2.475,2.478,2.4802,2.4826,2.4848,2.4887,2.4906,2.4943,2.4973,2.503,2.5057,2.5092,2.5097,2.5114,2.5103,2.5097,2.5098,2.5097,2.51,2.5115,2.5115,2.5116,2.5116,0,2.4674,2.4686,2.4716,2.4751,2.4777,2.4806,2.4835,2.485,2.4879,2.4903,2.494,2.4964,2.5012,2.5048,2.5087,2.5107,2.5117,2.5119,2.5126,2.512,2.5111,2.5117,2.5071,2.5118,2.5118,2.5117,2.5117,2.5117,2.4691,2.4713,2.4747,2.4781,2.4805,2.4833,2.4857,2.488,2.4911,2.4951,2.4964,2.5002,2.5036,2.5089,2.511,2.5141,2.514,2.5149,2.5151,2.5153,2.5153,2.5106,2.5149,2.5149,2.5148,2.5148,2.5148,0,2.4721,2.4744,2.4775,2.4815,2.4843,2.485,2.4883,2.4905,2.4939,2.497,2.5,2.5043,2.508,2.511,2.5148,2.5167,2.5173,2.5176,2.5175,2.518,2.5152,2.5143,2.5172,2.5172,2.5172,2.5172,2.5172,2.5172,2.474,2.4778,2.4793,2.4844,2.4867,2.4905,2.4923,2.4949,2.4974,2.5021,2.5052,2.5072,2.5103,2.5144,2.5178,2.5186,2.5199,2.5202,2.5211,2.5185,2.5182,2.5179,2.5171,2.5205,2.5205,2.5237,2.5237,2.5237]},{"header":{"parameterUnit":"m.s-1","parameterCategory":1,"la1":30.2991,"la2":30.254,"lo1":-89.0895,"lo2":-89.0444,"dy":0.0017,"dx":0.0017,"nx":28,"ny":28,"refTime":"2025-04-07T21:00:00:Z","depth":0,"parameterNumber":3,"parameterNumberName":"V-component_of_WINDS"},"data":[0,0,0,0,0,0,0,0,0,0,0,0,0,0,0,0,0,0,0,0,0,0,0,0,0,0,0,0,0,0,0,0,0,0,0,0,0,0,0,0,0,0,0,0,0,0,0,0,0,0,0,0,0,0,0,0,0,0,-4.161,-4.1611,0,-4.1671,-4.1671,-4.1672,-4.1719,-4.1719,-4.172,-4.172,-4.1778,-4.1779,-4.1781,0,0,0,0,0,0,0,0,0,0,0,0,0,-4.1533,-4.1534,-4.161,-4.1611,-4.1612,-4.167,-4.1671,-4.1672,-4.1719,-4.1719,-4.172,-4.1721,-4.1778,-4.1779,-4.1781,0,0,0,0,0,0,0,0,0,0,0,0,0,-4.1577,-4.1535,-4.161,-4.1642,-4.1646,-4.167,-4.1671,-4.1672,-4.1719,-4.1719,-4.172,-4.1721,-4.1778,-4.1779,-4.1781,-4.1777,0,0,-4.1786,-4.1787,0,0,0,0,0,0,0,0,-4.1575,-4.158,-4.1637,-4.164,-4.1644,-4.1688,-4.1666,-4.1707,-4.1719,-4.1691,-4.172,-4.1721,-4.1747,-4.1752,-4.1761,-4.178,-4.1782,-4.1786,-4.1787,-4.1788,-4.1788,0,0,0,0,0,0,0,-4.1571,-4.1578,-4.1634,-4.1637,-4.1642,-4.1653,-4.166,-4.1674,-4.1714,-4.1693,-4.1697,-4.1704,-4.175,-4.176,-4.1763,-4.1783,-4.1786,-4.1788,-4.1789,-4.1789,-4.1804,-4.1803,0,0,0,0,0,0,-4.1564,-4.1575,-4.1632,-4.1636,-4.161,-4.1654,-4.1662,-4.1673,-4.1714,-4.1721,-4.1703,-4.1706,-4.1756,-4.1761,-4.1765,-4.1764,-4.1788,-4.1789,-4.179,-4.1804,-4.1804,-4.1803,0,0,0,0,0,0,-4.1562,-4.1568,-4.163,-4.1606,-4.1615,-4.1654,-4.1667,-4.1674,-4.1684,-4.1722,-4.1729,-4.1706,-4.1757,-4.1763,-4.1775,-4.1767,-4.179,-4.1792,-4.1805,-4.1804,-4.1803,-4.1762,0,0,0,0,0,0,-4.156,-4.1568,-4.1567,-4.1606,-4.1616,-4.1638,-4.1666,-4.1675,-4.1687,-4.1691,-4.1726,-4.1733,-4.1758,-4.1772,-4.1776,-4.177,-4.1793,-4.1806,-4.1805,-4.1804,-4.1764,-4.176,-4.1756,0,0,0,0,0,-4.1557,-4.1552,-4.1567,-4.1573,-4.1616,-4.1638,-4.1643,-4.1674,-4.1686,-4.1686,-4.1711,-4.1732,-4.1768,-4.1773,-4.1778,-4.1772,-4.1806,-4.1805,-4.1804,-4.1766,-4.1761,-4.1756,0,0,0,0,0,0,-4.1508,-4.1557,-4.1574,-4.1582,-4.1606,-4.1646,-4.1645,-4.1667,-4.1686,-4.1689,-4.1725,-4.1732,-4.174,-4.1757,-4.1762,-4.1772,-4.179,-4.1789,-4.1759,-4.1755,-4.1751,-4.1746,-4.1794,0,0,0,0,0,-4.1499,-4.1513,-4.1555,-4.1558,-4.1569,-4.1605,-4.1616,-4.1638,-4.1663,-4.1672,-4.1698,-4.1721,-4.1737,-4.1747,-4.1765,-4.1768,-4.1776,-4.1767,-4.1762,-4.1759,-4.1757,-4.1761,-4.1758,-4.1798,-4.1798,-4.1798,0,0,-4.1479,-4.1508,-4.1514,-4.1549,-4.157,-4.1583,-4.1613,-4.1626,-4.1636,-4.1674,-4.1687,-4.1707,-4.1735,-4.1742,-4.1747,-4.1757,-4.1749,-4.1757,-4.1754,-4.1755,-4.176,-4.1756,-4.1752,-4.1797,-4.1798,-4.1798,0,0,-4.1449,-4.1472,-4.1478,-4.1499,-4.1531,-4.1556,-4.1557,-4.1595,-4.161,-4.1624,-4.1653,-4.1666,-4.1693,-4.1712,-4.1726,-4.1706,-4.1726,-4.1711,-4.1689,-4.1692,-4.1689,-4.1686,-4.1679,-4.1676,-4.171,-4.171,-4.171,0,-4.1419,-4.1442,-4.1477,-4.1489,-4.1504,-4.1541,-4.1547,-4.1565,-4.16,-4.1609,-4.1621,-4.1658,-4.1679,-4.1692,-4.1688,-4.1698,-4.17,-4.1706,-4.1687,-4.1685,-4.1683,-4.1676,-4.1673,-4.1708,-4.1708,-4.1708,-4.1708,0,-4.1404,-4.1419,-4.142,-4.1455,-4.147,-4.1478,-4.1515,-4.1526,-4.1547,-4.157,-4.1585,-4.1612,-4.1636,-4.1642,-4.1661,-4.1658,-4.1663,-4.168,-4.1699,-4.1676,-4.1671,-4.1668,-4.1705,-4.1705,-4.1706,-4.1707,0,0,-4.1342,-4.14,-4.1399,-4.1417,-4.1456,-4.1468,-4.1479,-4.1504,-4.1513,-4.1537,-4.1546,-4.157,-4.1587,-4.1602,-4.1625,-4.1628,-4.1612,-4.1645,-4.1647,-4.1637,-4.1609,-4.1595,-4.1592,-4.1626,-4.1626,-4.1626,-4.1607,0,-4.1318,-4.134,-4.1374,-4.1384,-4.1399,-4.1437,-4.1446,-4.1471,-4.1494,-4.151,-4.1535,-4.1551,-4.1572,-4.1582,-4.1587,-4.1612,-4.1606,-4.1615,-4.1634,-4.1635,-4.1625,-4.1589,-4.1574,-4.1555,-4.1605,-4.1605,-4.1605,0,-4.1292,-4.1316,-4.1329,-4.1369,-4.1376,-4.1384,-4.1411,-4.1426,-4.1455,-4.1472,-4.149,-4.1516,-4.1529,-4.1548,-4.1566,-4.1571,-4.1582,-4.1596,-4.1596,-4.1597,-4.1617,-4.1589,-4.1549,-4.1546,-4.1602,-4.1602,-4.1602,0,-4.1245,-4.1281,-4.1293,-4.1307,-4.1354,-4.1359,-4.1379,-4.1409,-4.1423,-4.1447,-4.1456,-4.148,-4.1493,-4.1511,-4.1543,-4.1553,-4.1558,-4.1579,-4.1571,-4.157,-4.1568,-4.1567,-4.1528,-4.1577,-4.1577,-4.1577,-4.1577,0,-4.1214,-4.1219,-4.1273,-4.128,-4.1289,-4.1328,-4.1335,-4.1358,-4.1385,-4.1398,-4.1432,-4.1442,-4.1484,-4.15,-4.1525,-4.1537,-4.1542,-4.1555,-4.1562,-4.1551,-4.155,-4.1557,-4.1559,-4.1577,-4.1577,-4.1577,-4.1577,0,-4.1161,-4.1198,-4.1214,-4.1259,-4.127,-4.1274,-4.1312,-4.1321,-4.1347,-4.1363,-4.1368,-4.1409,-4.1429,-4.1464,-4.1493,-4.151,-4.1517,-4.1528,-4.1507,-4.151,-4.15,-4.15,-4.1464,-4.1461,-4.1512,-4.1512,-4.1511,0,-4.1138,-4.1144,-4.119,-4.1202,-4.1221,-4.1239,-4.1254,-4.1294,-4.1308,-4.1344,-4.1348,-4.1371,-4.1392,-4.1423,-4.1455,-4.1478,-4.1489,-4.1475,-4.1493,-4.1483,-4.1488,-4.1487,-4.1488,-4.147,-4.1469,-4.1469,-4.1468,0,-4.1092,-4.1111,-4.1132,-4.116,-4.1177,-4.12,-4.1225,-4.1233,-4.1278,-4.1292,-4.1314,-4.1331,-4.1363,-4.1386,-4.1414,-4.1434,-4.1458,-4.1463,-4.1462,-4.1451,-4.1438,-4.1444,-4.1494,-4.1463,-4.1464,-4.1464,-4.1464,-4.1464,-4.1053,-4.1061,-4.1095,-4.1118,-4.1142,-4.1165,-4.1176,-4.1205,-4.1224,-4.1254,-4.1277,-4.1297,-4.1329,-4.137,-4.1389,-4.1405,-4.1416,-4.1415,-4.1415,-4.1413,-4.1409,-4.1437,-4.1411,-4.1411,-4.1411,-4.1411,-4.1411,0,-4.1008,-4.1033,-4.1054,-4.1089,-4.1107,-4.1132,-4.1162,-4.1175,-4.1193,-4.1221,-4.1242,-4.1268,-4.1291,-4.1326,-4.1352,-4.1358,-4.137,-4.1364,-4.1362,-4.1367,-4.1398,-4.1396,-4.1354,-4.1354,-4.1354,-4.1354,-4.1354,-4.1354,-4.0987,-4.1001,-4.1024,-4.1051,-4.1076,-4.1098,-4.1113,-4.1135,-4.1157,-4.1186,-4.1206,-4.1229,-4.126,-4.1289,-4.1311,-4.1321,-4.1328,-4.1318,-4.1331,-4.1359,-4.1364,-4.1369,-4.1367,-4.1319,-4.1319,-4.1298,-4.1297,-4.1297]}]]